[[{"header":{"parameterUnit":"m.s-1","parameterCategory":2,"la1":30.2991,"la2":30.254,"lo1":-89.0895,"lo2":-89.0444,"dy":0.0017,"dx":0.0017,"nx":28,"ny":28,"refTime":"2024-07-16T03:00:00:Z","depth":"0","parameterNumber":2,"parameterNumberName":"U-component_of_CURRENTS"},"data":[0,0,0,0,0,0,0,0,0,0,0,0,0,0,0,0,0,0,0,0,0,0,0,0,0,0,0,0,0,0,0,0,0,0,0,0,0,0,0,0,0,0,0,0,0,0,0,0,0,0,0,0,0,0,0,0,0,0,0.1933,0.1933,0,0.1868,0.1867,0.1866,0.1793,0.1793,0.1792,0.1792,0.1719,0.1718,0.1717,0,0,0,0,0,0,0,0,0,0,0,0,0,0.1945,0.1945,0.1933,0.1933,0.1933,0.1868,0.1867,0.1865,0.1794,0.1793,0.1792,0.1792,0.172,0.1718,0.1716,0,0,0,0,0,0,0,0,0,0,0,0,0,0.191,0.1945,0.1933,0.1894,0.189,0.1869,0.1867,0.1865,0.1794,0.1793,0.1792,0.1791,0.172,0.1718,0.1716,0.1717,0,0,0.1709,0.1708,0,0,0,0,0,0,0,0,0.1913,0.1909,0.19,0.1896,0.1892,0.1844,0.1845,0.1817,0.1794,0.1824,0.1792,0.1791,0.1765,0.1759,0.174,0.1714,0.1711,0.1709,0.1708,0.1707,0.1706,0,0,0,0,0,0,0,0.1915,0.1911,0.1901,0.19,0.1895,0.1863,0.1857,0.1839,0.1794,0.1821,0.1817,0.182,0.1762,0.1742,0.1737,0.1709,0.1709,0.1707,0.1706,0.1705,0.1755,0.1757,0,0,0,0,0,0,0.1939,0.1914,0.1903,0.19,0.1908,0.1864,0.1857,0.1855,0.1794,0.1786,0.1821,0.1817,0.1746,0.174,0.1735,0.1797,0.1707,0.1705,0.1704,0.1752,0.1756,0.1758,0,0,0,0,0,0,0.194,0.1939,0.1906,0.191,0.1905,0.1865,0.1863,0.1854,0.1842,0.1795,0.1786,0.1819,0.1745,0.1738,0.1746,0.1791,0.1704,0.1702,0.1749,0.1753,0.1757,0.1881,0,0,0,0,0,0,0.194,0.1939,0.1944,0.1912,0.1906,0.1912,0.1864,0.1854,0.1847,0.1841,0.1791,0.1783,0.1744,0.175,0.1744,0.1787,0.17,0.1746,0.1751,0.1756,0.1873,0.1888,0.1901,0,0,0,0,0,0.1941,0.1958,0.1944,0.1943,0.1914,0.1914,0.1907,0.1871,0.1848,0.1854,0.183,0.1785,0.1778,0.175,0.1743,0.1786,0.1743,0.175,0.1755,0.1867,0.1886,0.1901,0,0,0,0,0,0,0.1969,0.1952,0.1936,0.1947,0.194,0.1904,0.1908,0.1885,0.1866,0.1863,0.1811,0.1803,0.1831,0.1795,0.1766,0.1818,0.1756,0.1761,0.1844,0.1861,0.1875,0.1903,0.1698,0,0,0,0,0,0.1979,0.1985,0.1967,0.1979,0.1978,0.1945,0.1939,0.192,0.1902,0.1892,0.1864,0.1846,0.1849,0.1844,0.1835,0.1855,0.1884,0.1883,0.1897,0.1909,0.193,0.2016,0.2041,0.1778,0.1778,0.1778,0,0,0.1994,0.1988,0.199,0.1986,0.1972,0.1982,0.1938,0.1944,0.1957,0.189,0.1904,0.1894,0.1868,0.1899,0.1908,0.1872,0.2008,0.1916,0.1927,0.1941,0.2025,0.2051,0.2074,0.1782,0.1781,0.1781,0,0,0.2031,0.2022,0.2037,0.2037,0.2035,0.202,0.203,0.201,0.2005,0.2022,0.1992,0.202,0.1996,0.2006,0.2003,0.2092,0.2083,0.2083,0.2169,0.2254,0.2277,0.2297,0.2405,0.2434,0.2084,0.2085,0.2085,0,0.2046,0.206,0.2045,0.2063,0.2072,0.2045,0.2068,0.2065,0.2054,0.2074,0.2045,0.208,0.2056,0.2118,0.215,0.2126,0.2178,0.2103,0.2274,0.2294,0.2313,0.2419,0.2449,0.2091,0.209,0.209,0.2089,0,0.2089,0.2103,0.2118,0.2128,0.2142,0.2159,0.2161,0.218,0.2175,0.2178,0.2241,0.2229,0.2254,0.2257,0.2226,0.2346,0.2345,0.2287,0.2232,0.2347,0.2451,0.2481,0.2101,0.2098,0.2096,0.2095,0,0,0.2103,0.2138,0.2141,0.2155,0.2176,0.2187,0.2237,0.2273,0.2315,0.2328,0.24,0.2425,0.2431,0.2432,0.2414,0.2482,0.2665,0.2447,0.2448,0.2559,0.2889,0.2976,0.3016,0.2637,0.2642,0.2646,0.2924,0,0.2133,0.2176,0.2193,0.2239,0.2257,0.2273,0.232,0.2358,0.2391,0.2457,0.2488,0.2538,0.2492,0.2518,0.2591,0.2634,0.2742,0.2598,0.2758,0.2764,0.283,0.3052,0.3115,0.3375,0.2952,0.2957,0.296,0,0.2157,0.2183,0.223,0.2286,0.2299,0.2329,0.2407,0.2449,0.2542,0.2576,0.2654,0.2671,0.2785,0.2719,0.2906,0.2816,0.2884,0.292,0.293,0.2988,0.2906,0.3184,0.3443,0.3299,0.3005,0.3001,0.2998,0,0.2152,0.2208,0.2245,0.226,0.2321,0.2359,0.2399,0.2485,0.2538,0.2661,0.2725,0.2841,0.2911,0.3013,0.3094,0.3016,0.331,0.32,0.336,0.3366,0.3441,0.3446,0.3583,0.3378,0.3377,0.3376,0.3375,0,0.2165,0.2193,0.2241,0.2257,0.2308,0.2362,0.244,0.2499,0.2615,0.2701,0.2784,0.2888,0.2988,0.3141,0.3197,0.3412,0.3407,0.3457,0.3472,0.349,0.3496,0.3383,0.3264,0.3387,0.3384,0.3382,0.338,0,0.2146,0.218,0.2216,0.228,0.2301,0.2336,0.2436,0.2495,0.2614,0.2741,0.2788,0.2971,0.3192,0.3319,0.3515,0.3564,0.3658,0.3794,0.383,0.3846,0.3834,0.372,0.3715,0.3613,0.4043,0.4047,0.405,0,0.2137,0.2152,0.2208,0.2222,0.2247,0.2308,0.2349,0.247,0.2545,0.2786,0.2851,0.3115,0.3296,0.3667,0.3854,0.4083,0.3839,0.4226,0.4087,0.393,0.3812,0.3515,0.3404,0.425,0.4254,0.4258,0.4262,0,0.2105,0.2122,0.2145,0.2176,0.2209,0.2262,0.2342,0.2407,0.2571,0.2711,0.2931,0.3111,0.3538,0.3825,0.4157,0.4295,0.4049,0.4316,0.415,0.4028,0.3719,0.3596,0.3957,0.4298,0.4294,0.4291,0.4289,0.4288,0.206,0.2064,0.2087,0.2114,0.2149,0.2205,0.2245,0.237,0.2509,0.2732,0.2924,0.3215,0.3679,0.4187,0.4318,0.456,0.4305,0.4474,0.4371,0.4096,0.3934,0.44,0.4734,0.4733,0.4732,0.4731,0.473,0,0.1983,0.1998,0.2023,0.2052,0.2062,0.2116,0.2221,0.2278,0.2426,0.27,0.2911,0.3422,0.3834,0.421,0.4635,0.4592,0.4375,0.4468,0.4054,0.3955,0.4434,0.4378,0.4654,0.4654,0.4654,0.4654,0.4654,0.4654,0.1939,0.1931,0.1953,0.1946,0.197,0.1994,0.2044,0.2168,0.2357,0.2684,0.2976,0.3224,0.3719,0.421,0.444,0.4441,0.405,0.3974,0.3749,0.4087,0.4075,0.4063,0.3982,0.4171,0.417,0.3196,0.3189,0.3184]},{"header":{"parameterUnit":"m.s-1","parameterCategory":2,"la1":30.2991,"la2":30.254,"lo1":-89.0895,"lo2":-89.0444,"dy":0.0017,"dx":0.0017,"nx":28,"ny":28,"refTime":"2024-07-16T03:00:00:Z","depth":"0","parameterNumber":3,"parameterNumberName":"V-component_of_CURRENTS"},"data":[0,0,0,0,0,0,0,0,0,0,0,0,0,0,0,0,0,0,0,0,0,0,0,0,0,0,0,0,0,0,0,0,0,0,0,0,0,0,0,0,0,0,0,0,0,0,0,0,0,0,0,0,0,0,0,0,0,0,-0.0403,-0.0404,0,-0.0459,-0.0459,-0.046,-0.0514,-0.0515,-0.0516,-0.0517,-0.065,-0.0653,-0.0656,0,0,0,0,0,0,0,0,0,0,0,0,0,-0.0358,-0.0358,-0.0403,-0.0404,-0.0405,-0.0459,-0.0459,-0.046,-0.0514,-0.0515,-0.0516,-0.0517,-0.065,-0.0653,-0.0656,0,0,0,0,0,0,0,0,0,0,0,0,0,-0.0389,-0.0358,-0.0403,-0.0441,-0.0445,-0.0458,-0.0459,-0.046,-0.0514,-0.0515,-0.0516,-0.0518,-0.0649,-0.0652,-0.0656,-0.0653,0,0,-0.0669,-0.067,0,0,0,0,0,0,0,0,-0.0387,-0.0391,-0.0434,-0.0438,-0.0443,-0.0483,-0.0492,-0.0529,-0.0513,-0.0485,-0.0517,-0.0518,-0.0602,-0.061,-0.0613,-0.0659,-0.0665,-0.0669,-0.0671,-0.0673,-0.0674,0,0,0,0,0,0,0,-0.0385,-0.0389,-0.0423,-0.0435,-0.044,-0.0459,-0.0465,-0.0499,-0.0534,-0.0487,-0.0492,-0.0502,-0.0605,-0.0609,-0.0617,-0.0667,-0.0669,-0.0672,-0.0675,-0.0676,-0.0729,-0.0728,0,0,0,0,0,0,-0.0381,-0.0386,-0.0421,-0.0425,-0.0421,-0.0459,-0.0465,-0.0467,-0.0532,-0.0544,-0.05,-0.0504,-0.0601,-0.0612,-0.0622,-0.0611,-0.0673,-0.0677,-0.0679,-0.073,-0.0729,-0.0727,0,0,0,0,0,0,-0.038,-0.0383,-0.0419,-0.0409,-0.0416,-0.0459,-0.046,-0.0467,-0.0475,-0.0542,-0.0555,-0.0501,-0.0603,-0.0616,-0.0637,-0.0618,-0.0679,-0.0682,-0.0731,-0.0729,-0.0728,-0.0598,0,0,0,0,0,0,-0.0378,-0.0382,-0.0375,-0.0409,-0.0416,-0.0416,-0.0459,-0.0467,-0.048,-0.0485,-0.0547,-0.0561,-0.0605,-0.063,-0.0641,-0.0624,-0.0685,-0.0732,-0.073,-0.0728,-0.0604,-0.0592,-0.0582,0,0,0,0,0,-0.0376,-0.036,-0.0374,-0.0378,-0.0407,-0.0415,-0.0419,-0.0454,-0.0478,-0.0468,-0.0507,-0.0559,-0.0627,-0.0632,-0.0645,-0.0629,-0.0733,-0.0731,-0.0729,-0.0608,-0.0594,-0.0583,0,0,0,0,0,0,-0.0333,-0.0365,-0.0381,-0.0374,-0.039,-0.0425,-0.0421,-0.0446,-0.0466,-0.0475,-0.054,-0.0554,-0.0567,-0.0614,-0.0619,-0.064,-0.0691,-0.0691,-0.0595,-0.0583,-0.0573,-0.0554,-0.0689,0,0,0,0,0,-0.032,-0.0316,-0.0349,-0.034,-0.0347,-0.0382,-0.0389,-0.0411,-0.0438,-0.0449,-0.0491,-0.0537,-0.0565,-0.0586,-0.062,-0.0628,-0.0673,-0.063,-0.0619,-0.061,-0.0603,-0.0649,-0.0642,-0.072,-0.072,-0.072,0,0,-0.03,-0.0317,-0.0315,-0.0331,-0.0347,-0.0336,-0.0389,-0.0392,-0.038,-0.0461,-0.0456,-0.05,-0.0558,-0.0562,-0.0574,-0.0601,-0.0607,-0.0607,-0.0598,-0.0597,-0.0646,-0.0639,-0.0632,-0.0718,-0.0719,-0.0719,0,0,-0.0256,-0.0273,-0.0255,-0.0263,-0.0283,-0.0298,-0.0296,-0.0325,-0.0337,-0.0337,-0.039,-0.0414,-0.0464,-0.0492,-0.0516,-0.0469,-0.0547,-0.0491,-0.0424,-0.0468,-0.0462,-0.0458,-0.0485,-0.0484,-0.0488,-0.0488,-0.0488,0,-0.0232,-0.0215,-0.0249,-0.0234,-0.0231,-0.0276,-0.0249,-0.0259,-0.0289,-0.0292,-0.0322,-0.0378,-0.0426,-0.0431,-0.0414,-0.0444,-0.0482,-0.0464,-0.0453,-0.045,-0.0447,-0.0477,-0.0477,-0.0481,-0.0482,-0.0483,-0.0483,0,-0.0178,-0.0162,-0.015,-0.0144,-0.014,-0.0125,-0.0146,-0.0142,-0.0166,-0.0187,-0.0199,-0.0254,-0.0293,-0.0308,-0.0347,-0.0348,-0.0384,-0.043,-0.0481,-0.0431,-0.0466,-0.0469,-0.0472,-0.0474,-0.0476,-0.0478,0,0,-0.0128,-0.0115,-0.0109,-0.0088,-0.0092,-0.0081,-0.0056,-0.005,-0.0032,-0.007,-0.0056,-0.0102,-0.0147,-0.0177,-0.0231,-0.0266,-0.027,-0.0333,-0.0338,-0.0351,-0.0359,-0.035,-0.0353,-0.0321,-0.0321,-0.0321,-0.0383,0,-0.0074,-0.0023,-0.003,0.0031,0.0056,0.0034,0.0066,0.0064,0.0048,0.0051,-0.0012,-0.0025,-0.0094,-0.0109,-0.0151,-0.024,-0.0275,-0.0248,-0.0414,-0.0418,-0.0409,-0.0355,-0.0267,-0.0313,-0.0386,-0.0387,-0.0387,0,-0.0019,0.0009,0.0073,0.0118,0.0128,0.0161,0.0198,0.0219,0.0205,0.0188,0.0155,0.0094,0.0052,-0.0022,-0.0144,-0.0127,-0.023,-0.0305,-0.031,-0.0351,-0.0414,-0.038,-0.0316,-0.0507,-0.0392,-0.0392,-0.0392,0,0.0029,0.0084,0.0141,0.0155,0.0196,0.0228,0.0253,0.026,0.0286,0.0271,0.0282,0.0202,0.0176,0.004,-0.0107,-0.0135,-0.0245,-0.0311,-0.0398,-0.0399,-0.0381,-0.038,-0.0514,-0.0406,-0.0406,-0.0406,-0.0406,0,0.0085,0.0132,0.0172,0.0201,0.028,0.0287,0.0361,0.037,0.0391,0.0435,0.0355,0.0371,0.0186,0.0098,-0.0063,-0.0214,-0.0216,-0.0369,-0.041,-0.0331,-0.0325,-0.0539,-0.0684,-0.0408,-0.0408,-0.0407,-0.0407,0,0.0124,0.0149,0.0217,0.0276,0.0303,0.0357,0.0432,0.0482,0.0496,0.0551,0.0551,0.0496,0.0398,0.0218,0.0015,-0.0137,-0.0396,-0.0364,-0.0245,-0.027,-0.0537,-0.0678,-0.0848,-0.0942,-0.0472,-0.0472,-0.0472,0,0.0148,0.0187,0.0267,0.0318,0.0349,0.0429,0.0488,0.0526,0.058,0.0635,0.0668,0.0608,0.059,0.0327,0.0069,-0.0181,-0.0388,-0.0304,-0.0348,-0.0522,-0.0711,-0.0782,-0.0856,-0.0271,-0.0269,-0.0268,-0.0267,0,0.0198,0.0223,0.0278,0.0375,0.045,0.054,0.0627,0.0687,0.0744,0.0808,0.0875,0.0874,0.0664,0.0493,0.0169,-0.0034,-0.0417,-0.0287,-0.0502,-0.0585,-0.0638,-0.0756,-0.0262,-0.0255,-0.0256,-0.0257,-0.0258,-0.0258,0.0232,0.0281,0.0354,0.0449,0.0538,0.0657,0.0747,0.0842,0.0961,0.1104,0.1066,0.1171,0.0894,0.049,0.0159,-0.0318,-0.0381,-0.0461,-0.0621,-0.0678,-0.0759,-0.0229,-0.0252,-0.0253,-0.0254,-0.0255,-0.0255,0,0.0278,0.0341,0.043,0.0554,0.0664,0.07,0.0848,0.0956,0.1119,0.1291,0.1383,0.1419,0.1029,0.058,-0.0056,-0.0521,-0.0706,-0.079,-0.0882,-0.095,-0.0491,-0.047,-0.0498,-0.0498,-0.0497,-0.0497,-0.0497,-0.0497,0.0312,0.04,0.0451,0.0645,0.074,0.0904,0.1001,0.1163,0.1326,0.162,0.1807,0.1895,0.1607,0.0343,-0.0597,-0.0875,-0.123,-0.128,-0.1518,-0.122,-0.1201,-0.1184,-0.1195,-0.1375,-0.1377,-0.1842,-0.1848,-0.1852]}],[{"header":{"parameterUnit":"m.s-1","parameterCategory":2,"la1":30.2991,"la2":30.254,"lo1":-89.0895,"lo2":-89.0444,"dy":0.0017,"dx":0.0017,"nx":28,"ny":28,"refTime":"2024-07-16T03:00:00:Z","depth":"2","parameterNumber":2,"parameterNumberName":"U-component_of_CURRENTS"},"data":[0,0,0,0,0,0,0,0,0,0,0,0,0,0,0,0,0,0,0,0,0,0,0,0,0,0,0,0,0,0,0,0,0,0,0,0,0,0,0,0,0,0,0,0,0,0,0,0,0,0,0,0,0,0,0,0,0,0,0.2025,0.2026,0,0.2141,0.2142,0.2143,0.2156,0.2155,0.2154,0.2153,0.2202,0.2205,0.2207,0,0,0,0,0,0,0,0,0,0,0,0,0,0.1838,0.184,0.2024,0.2026,0.2028,0.2141,0.2142,0.2143,0.2156,0.2155,0.2154,0.2153,0.2202,0.2204,0.2207,0,0,0,0,0,0,0,0,0,0,0,0,0,0.193,0.1841,0.2024,0.205,0.2053,0.214,0.2142,0.2144,0.2156,0.2155,0.2153,0.2152,0.2201,0.2204,0.2207,0.2255,0,0,0.2217,0.2219,0,0,0,0,0,0,0,0,0.1925,0.1936,0.2044,0.2048,0.2052,0.2135,0.2094,0.2179,0.2156,0.2114,0.2153,0.2151,0.2176,0.2182,0.2204,0.2257,0.226,0.2218,0.222,0.2221,0.2222,0,0,0,0,0,0,0,0.1918,0.1932,0.2068,0.2046,0.2051,0.2064,0.2075,0.2111,0.2148,0.2118,0.212,0.2137,0.2178,0.22,0.2205,0.226,0.2217,0.222,0.2222,0.2224,0.2367,0.2369,0,0,0,0,0,0,0.191,0.1926,0.2064,0.2071,0.1987,0.2068,0.2081,0.2107,0.2149,0.2156,0.2139,0.2138,0.2196,0.2201,0.2206,0.228,0.2221,0.2224,0.2226,0.2366,0.2368,0.237,0,0,0,0,0,0,0.1906,0.1922,0.2059,0.2002,0.2021,0.2073,0.2103,0.2111,0.213,0.2166,0.2171,0.215,0.2195,0.2202,0.2245,0.2281,0.2225,0.2228,0.2363,0.2366,0.2369,0.2418,0,0,0,0,0,0,0.19,0.192,0.1937,0.2003,0.2024,0.211,0.2105,0.2114,0.2145,0.2145,0.2178,0.2182,0.2194,0.224,0.2248,0.2285,0.2231,0.2361,0.2365,0.2368,0.2414,0.2422,0.2429,0,0,0,0,0,0.1893,0.1919,0.1937,0.1954,0.2046,0.2111,0.2123,0.2153,0.2147,0.2163,0.2188,0.218,0.2267,0.2244,0.2253,0.2292,0.2359,0.2364,0.2368,0.241,0.242,0.2429,0,0,0,0,0,0,0.1846,0.1926,0.1946,0.1995,0.2049,0.2114,0.2137,0.2155,0.219,0.2187,0.2206,0.2213,0.2272,0.2273,0.2247,0.2344,0.2312,0.2318,0.2342,0.2351,0.2358,0.2373,0.2234,0,0,0,0,0,0.1846,0.1887,0.196,0.2,0.2028,0.2082,0.2112,0.2135,0.2177,0.219,0.2214,0.2247,0.2301,0.2314,0.2357,0.2403,0.2436,0.2434,0.2441,0.2447,0.2466,0.255,0.2567,0.2384,0.2384,0.2384,0,0,0.1838,0.1889,0.1911,0.1993,0.2037,0.2089,0.2096,0.2145,0.2188,0.2191,0.2245,0.228,0.2322,0.2385,0.2409,0.2384,0.2518,0.2453,0.2458,0.2474,0.2556,0.2574,0.259,0.2386,0.2386,0.2386,0,0,0.1844,0.189,0.1926,0.1977,0.2049,0.209,0.2103,0.217,0.2198,0.2259,0.2284,0.2339,0.2394,0.2445,0.2476,0.255,0.2564,0.2554,0.2594,0.2676,0.2692,0.2706,0.2771,0.2791,0.2546,0.2546,0.2546,0,0.1827,0.1891,0.1944,0.1996,0.2037,0.209,0.2134,0.2186,0.2255,0.2293,0.2276,0.2409,0.2433,0.2541,0.2566,0.257,0.2609,0.2554,0.2686,0.2701,0.2715,0.2778,0.2799,0.2549,0.2548,0.2548,0.2548,0,0.1866,0.1917,0.1944,0.2028,0.2077,0.2125,0.2203,0.2252,0.2285,0.2339,0.2442,0.2493,0.257,0.2589,0.2601,0.2719,0.2714,0.2695,0.2662,0.2737,0.2798,0.2819,0.2553,0.2552,0.2551,0.255,0,0,0.1825,0.1945,0.1954,0.1994,0.2097,0.2138,0.2224,0.2319,0.238,0.245,0.2532,0.2637,0.2666,0.2705,0.2734,0.2798,0.2926,0.2785,0.2788,0.2848,0.3104,0.2928,0.2934,0.2929,0.2933,0.2936,0.3107,0,0.1837,0.192,0.1983,0.2059,0.2108,0.2188,0.2262,0.2354,0.2433,0.2524,0.2612,0.2701,0.2712,0.275,0.2827,0.2909,0.2985,0.2881,0.3025,0.303,0.2862,0.2953,0.2645,0.2757,0.3128,0.3132,0.3134,0,0.1856,0.191,0.198,0.2081,0.2108,0.2161,0.2285,0.2362,0.2514,0.2574,0.2691,0.2759,0.29,0.287,0.3076,0.3009,0.3071,0.3119,0.3126,0.296,0.2893,0.2743,0.2782,0.317,0.3167,0.3164,0.3162,0,0.1803,0.1907,0.1956,0.1994,0.2117,0.2162,0.223,0.2375,0.2449,0.2616,0.268,0.2853,0.2938,0.3061,0.3176,0.3139,0.3374,0.3329,0.3238,0.3226,0.2991,0.295,0.3476,0.3475,0.3475,0.3475,0.3474,0,0.1797,0.1838,0.1932,0.1965,0.2029,0.2123,0.2214,0.2315,0.2454,0.2555,0.27,0.2806,0.299,0.3138,0.3224,0.3302,0.3427,0.3273,0.3267,0.2996,0.2955,0.3326,0.3307,0.3481,0.348,0.3478,0.3477,0,0.1749,0.1812,0.1872,0.1977,0.2012,0.2058,0.2187,0.2256,0.2395,0.2532,0.2585,0.2806,0.3001,0.3165,0.3374,0.334,0.344,0.3434,0.3092,0.3039,0.3227,0.3209,0.3348,0.3344,0.334,0.3336,0.3334,0,0.1738,0.1762,0.1859,0.1886,0.1936,0.2014,0.2074,0.2217,0.2298,0.253,0.259,0.2813,0.2938,0.3161,0.3143,0.3237,0.3422,0.3019,0.287,0.3239,0.322,0.3207,0.3194,0.2601,0.2593,0.2586,0.258,0,0.1707,0.1735,0.1778,0.1834,0.1887,0.1953,0.2049,0.2097,0.2278,0.2382,0.2552,0.2657,0.2802,0.2747,0.2825,0.2837,0.2965,0.2871,0.3401,0.2644,0.2538,0.2517,0.2529,0.2518,0.2524,0.2529,0.2532,0.2535,0.1672,0.1685,0.1732,0.1781,0.183,0.1881,0.1919,0.2016,0.2112,0.2231,0.2391,0.2429,0.2425,0.2338,0.2355,0.2369,0.2532,0.2474,0.2496,0.2525,0.2371,0.2259,0.216,0.2164,0.2167,0.2171,0.2173,0,0.1631,0.1654,0.1681,0.1736,0.175,0.181,0.1894,0.1901,0.1974,0.2044,0.2124,0.1862,0.1818,0.1932,0.1781,0.176,0.1744,0.1795,0.1773,0.1831,0.1883,0.1699,0.131,0.1308,0.1307,0.1306,0,0,0.1615,0.162,0.1635,0.1646,0.1678,0.17,0.173,0.1733,0.176,0.1667,0.1616,0.1662,0.1744,0.1445,0.1429,0.1391,0.1617,0.134,0.2009,0.2035,0.2087,0.2226,0.1998,0,0,0,0,0]},{"header":{"parameterUnit":"m.s-1","parameterCategory":2,"la1":30.2991,"la2":30.254,"lo1":-89.0895,"lo2":-89.0444,"dy":0.0017,"dx":0.0017,"nx":28,"ny":28,"refTime":"2024-07-16T03:00:00:Z","depth":"2","parameterNumber":3,"parameterNumberName":"V-component_of_CURRENTS"},"data":[0,0,0,0,0,0,0,0,0,0,0,0,0,0,0,0,0,0,0,0,0,0,0,0,0,0,0,0,0,0,0,0,0,0,0,0,0,0,0,0,0,0,0,0,0,0,0,0,0,0,0,0,0,0,0,0,0,0,0.0216,0.0215,0,0.0182,0.0182,0.0181,0.0139,0.0139,0.0138,0.0138,0.0087,0.0086,0.0086,0,0,0,0,0,0,0,0,0,0,0,0,0,0.0222,0.0222,0.0216,0.0215,0.0215,0.0182,0.0182,0.0181,0.0139,0.0139,0.0138,0.0137,0.0087,0.0086,0.0085,0,0,0,0,0,0,0,0,0,0,0,0,0,0.0207,0.0222,0.0216,0.0191,0.0188,0.0182,0.0182,0.0181,0.014,0.0139,0.0138,0.0137,0.0088,0.0086,0.0085,0.0096,0,0,0.0082,0.0081,0,0,0,0,0,0,0,0,0.0208,0.0206,0.0195,0.0193,0.019,0.0165,0.0166,0.0152,0.014,0.0157,0.0138,0.0136,0.0113,0.0109,0.0104,0.0094,0.0092,0.0082,0.0081,0.008,0.008,0,0,0,0,0,0,0,0.0209,0.0207,0.0202,0.0195,0.0191,0.0174,0.0171,0.0163,0.014,0.0156,0.0153,0.0151,0.0111,0.0105,0.0103,0.0091,0.0082,0.0081,0.008,0.0079,0.006,0.0061,0,0,0,0,0,0,0.0217,0.0209,0.0203,0.0201,0.0197,0.0175,0.0171,0.0173,0.014,0.0134,0.0151,0.0149,0.0108,0.0104,0.0101,0.0102,0.008,0.0079,0.0079,0.006,0.006,0.0061,0,0,0,0,0,0,0.0217,0.0217,0.0204,0.0204,0.0201,0.0176,0.0178,0.0173,0.0167,0.0137,0.0131,0.0151,0.0107,0.0102,0.0097,0.01,0.0079,0.0078,0.006,0.006,0.0061,0.0112,0,0,0,0,0,0,0.0217,0.0217,0.0227,0.0205,0.0202,0.021,0.0179,0.0173,0.0168,0.0164,0.0135,0.0129,0.0106,0.0099,0.0096,0.0098,0.0077,0.006,0.006,0.0061,0.011,0.0114,0.0117,0,0,0,0,0,0.0218,0.0241,0.0228,0.0227,0.0214,0.0211,0.0208,0.0186,0.0169,0.0176,0.0152,0.013,0.0098,0.0099,0.0095,0.0097,0.006,0.006,0.006,0.0108,0.0113,0.0117,0,0,0,0,0,0,0.0261,0.0238,0.0223,0.0241,0.0229,0.0204,0.0212,0.0193,0.018,0.0175,0.0141,0.0134,0.0128,0.0108,0.0109,0.0091,0.0072,0.0072,0.011,0.0114,0.0118,0.0143,0.0076,0,0,0,0,0,0.0273,0.0276,0.0254,0.027,0.0264,0.0238,0.0235,0.0219,0.0202,0.0195,0.0172,0.0147,0.0128,0.0119,0.0102,0.01,0.0074,0.0095,0.0099,0.0103,0.012,0.0072,0.0073,0.0062,0.0062,0.0062,0,0,0.0295,0.0283,0.0286,0.0278,0.0265,0.0273,0.0234,0.0236,0.0241,0.0193,0.0196,0.0164,0.0131,0.0124,0.0119,0.0108,0.0093,0.0103,0.0106,0.0122,0.0073,0.0074,0.0074,0.0062,0.0062,0.0062,0,0,0.034,0.033,0.0343,0.0336,0.0321,0.0306,0.0309,0.0285,0.0274,0.0272,0.0232,0.0205,0.0185,0.0155,0.0138,0.0154,0.0115,0.0144,0.0182,0.0135,0.0136,0.0136,0.0109,0.0107,0.0143,0.0143,0.0143,0,0.0367,0.0381,0.035,0.0362,0.0367,0.0325,0.0347,0.0332,0.031,0.0309,0.0282,0.0238,0.0199,0.0187,0.0182,0.0163,0.0138,0.0169,0.0141,0.014,0.014,0.0112,0.0108,0.0146,0.0145,0.0145,0.0145,0,0.0413,0.0428,0.044,0.0437,0.0439,0.0453,0.0427,0.0425,0.0402,0.0383,0.0366,0.0307,0.0282,0.0253,0.0221,0.02,0.0185,0.0152,0.0132,0.0144,0.0114,0.0109,0.0149,0.0148,0.0148,0.0147,0,0,0.0466,0.047,0.0475,0.0492,0.0481,0.0491,0.0501,0.0502,0.052,0.0471,0.0485,0.0417,0.0378,0.0356,0.03,0.025,0.0209,0.0204,0.02,0.0183,0.0121,0.008,0.0071,0.0168,0.0168,0.0167,0.0103,0,0.0512,0.0555,0.0542,0.0591,0.0615,0.0588,0.0608,0.0601,0.0585,0.0587,0.0511,0.0499,0.0419,0.0402,0.034,0.0255,0.0199,0.0231,0.0107,0.0105,0.0071,0.0065,0.0008,-0.0056,0.0098,0.0098,0.0097,0,0.0559,0.0584,0.0638,0.0676,0.0684,0.0704,0.0735,0.0747,0.0731,0.0716,0.0679,0.0625,0.0558,0.0477,0.0335,0.0361,0.0247,0.0166,0.016,0.0106,0.0056,-0.0045,-0.0071,0.0089,0.009,0.009,0.0091,0,0.0613,0.0655,0.0703,0.0714,0.0744,0.0767,0.0783,0.0788,0.0811,0.0798,0.081,0.0723,0.0686,0.0541,0.0374,0.035,0.0218,0.0161,0.0018,0.0015,-0.0065,-0.0074,0.0044,0.0044,0.0045,0.0045,0.0045,0,0.0673,0.0712,0.0733,0.0762,0.083,0.0828,0.0895,0.0899,0.0914,0.0957,0.0878,0.0892,0.0696,0.0598,0.0423,0.0226,0.0251,0.0033,-0.0008,-0.0048,-0.0055,0.0046,0.0047,0.0042,0.0043,0.0043,0.0044,0,0.0727,0.0737,0.0797,0.0839,0.0858,0.0907,0.0963,0.1007,0.1016,0.107,0.1067,0.1013,0.0888,0.0693,0.0472,0.0298,0.0108,0.0023,0.0003,-0.0039,-0.0078,-0.0073,-0.0147,-0.0149,-0.015,-0.0152,-0.0153,0,0.0759,0.0794,0.0854,0.089,0.0911,0.0977,0.1023,0.1052,0.1101,0.115,0.1181,0.1097,0.1042,0.0729,0.0387,0.008,0.0093,-0.0142,-0.0217,-0.0067,-0.0099,-0.0092,-0.0085,-0.0301,-0.0303,-0.0305,-0.0307,0,0.0818,0.0831,0.0871,0.0948,0.1003,0.1081,0.1149,0.1206,0.1251,0.1292,0.135,0.1317,0.1007,0.0656,0.0241,0.0042,-0.0098,-0.0192,-0.0037,-0.0238,-0.0217,-0.0246,-0.0234,-0.0324,-0.0322,-0.0321,-0.032,-0.0319,0.0842,0.088,0.0922,0.0997,0.1067,0.1168,0.1244,0.1323,0.141,0.1453,0.143,0.1305,0.0921,0.0298,0.0027,-0.0255,-0.0251,-0.0376,-0.0369,-0.036,-0.0361,-0.0344,-0.0473,-0.0472,-0.0471,-0.0471,-0.047,0,0.0852,0.0893,0.0967,0.1055,0.1141,0.1179,0.131,0.1385,0.1501,0.1456,0.1453,0.0959,0.0583,0.0237,-0.0256,-0.0523,-0.0521,-0.0542,-0.0515,-0.05,-0.0486,-0.049,-0.0638,-0.0638,-0.0638,-0.0638,0,0,0.0851,0.0903,0.0948,0.1086,0.1162,0.1289,0.1373,0.1488,0.149,0.1391,0.1211,0.0988,0.0537,0.0128,-0.0208,-0.0408,-0.0364,-0.0426,-0.0283,-0.0197,-0.0178,-0.0403,-0.0395,0,0,0,0,0]}],[{"header":{"parameterUnit":"m.s-1","parameterCategory":2,"la1":30.2991,"la2":30.254,"lo1":-89.0895,"lo2":-89.0444,"dy":0.0017,"dx":0.0017,"nx":28,"ny":28,"refTime":"2024-07-16T03:00:00:Z","depth":"4","parameterNumber":2,"parameterNumberName":"U-component_of_CURRENTS"},"data":[0,0,0,0,0,0,0,0,0,0,0,0,0,0,0,0,0,0,0,0,0,0,0,0,0,0,0,0,0,0,0,0,0,0,0,0,0,0,0,0,0,0,0,0,0,0,0,0,0,0,0,0,0,0,0,0,0,0,0.066,0.0661,0,0.0709,0.071,0.0711,0.0806,0.0807,0.0809,0.081,0.0817,0.0816,0.0814,0,0,0,0,0,0,0,0,0,0,0,0,0,0.0586,0.0588,0.066,0.0661,0.0661,0.0709,0.071,0.0711,0.0805,0.0807,0.0809,0.0811,0.0817,0.0816,0.0814,0,0,0,0,0,0,0,0,0,0,0,0,0,0.0628,0.0588,0.066,0.0711,0.0716,0.0709,0.071,0.0711,0.0805,0.0807,0.081,0.0812,0.0818,0.0816,0.0814,0.0755,0,0,0.0808,0.0807,0,0,0,0,0,0,0,0,0.0626,0.0631,0.0704,0.0708,0.0713,0.0751,0.0686,0.0723,0.0804,0.0775,0.081,0.0813,0.0787,0.0788,0.0797,0.0756,0.0756,0.0808,0.0807,0.0806,0.0806,0,0,0,0,0,0,0,0.0623,0.0629,0.0683,0.0704,0.0709,0.071,0.072,0.0694,0.0769,0.0778,0.0784,0.0783,0.079,0.0799,0.0798,0.0756,0.0808,0.0806,0.0805,0.0805,0.0842,0.0844,0,0,0,0,0,0,0.0611,0.0627,0.0681,0.0684,0.0671,0.0709,0.072,0.0739,0.077,0.0777,0.0781,0.0787,0.0801,0.08,0.0798,0.085,0.0806,0.0804,0.0803,0.0839,0.0842,0.0844,0,0,0,0,0,0,0.0609,0.0616,0.0679,0.0653,0.066,0.0708,0.0728,0.0739,0.0776,0.0773,0.078,0.0811,0.0803,0.0801,0.0827,0.0846,0.0803,0.0802,0.0837,0.084,0.0843,0.0875,0,0,0,0,0,0,0.0608,0.0616,0.0637,0.0652,0.0661,0.0689,0.0726,0.0738,0.0769,0.0778,0.0799,0.0802,0.0804,0.083,0.0825,0.0843,0.08,0.0834,0.0838,0.0842,0.0871,0.0879,0.0885,0,0,0,0,0,0.0605,0.0614,0.0638,0.0645,0.0686,0.0688,0.0693,0.0736,0.0768,0.078,0.0821,0.0803,0.0853,0.0829,0.0823,0.0841,0.0832,0.0837,0.0842,0.0868,0.0877,0.0885,0,0,0,0,0,0,0.0601,0.0625,0.0652,0.0673,0.0687,0.0703,0.0726,0.0742,0.0782,0.0814,0.0813,0.0817,0.0847,0.0843,0.0818,0.0871,0.0844,0.0848,0.0867,0.0875,0.0882,0.0892,0.0799,0,0,0,0,0,0.0605,0.0617,0.0641,0.0657,0.0677,0.0705,0.0717,0.0746,0.0773,0.0796,0.0818,0.0847,0.0854,0.0867,0.0875,0.0886,0.0869,0.0903,0.091,0.0916,0.0924,0.0924,0.093,0.086,0.086,0.086,0,0,0.0608,0.062,0.0631,0.0656,0.0686,0.0702,0.0722,0.0754,0.0779,0.0784,0.0849,0.0862,0.0863,0.0896,0.091,0.0899,0.0926,0.0922,0.0926,0.0932,0.0929,0.0936,0.0941,0.0863,0.0863,0.0862,0,0,0.0606,0.064,0.0657,0.0672,0.0709,0.0717,0.0727,0.0772,0.0818,0.0856,0.0879,0.0909,0.0929,0.0942,0.0942,0.0987,0.0958,0.1003,0.1045,0.1045,0.1049,0.1054,0.1027,0.1028,0.1012,0.1012,0.1012,0,0.061,0.0642,0.0659,0.0681,0.0706,0.0723,0.0757,0.0779,0.0828,0.0866,0.0891,0.0947,0.0946,0.0966,0.1007,0.0997,0.0995,0.1004,0.105,0.1054,0.1058,0.1029,0.1031,0.1014,0.1014,0.1014,0.1014,0,0.0629,0.0658,0.0671,0.0706,0.0728,0.0755,0.0791,0.0828,0.0879,0.0906,0.097,0.0989,0.1027,0.1031,0.1034,0.1069,0.1057,0.1048,0.1019,0.1066,0.1034,0.1034,0.1018,0.1017,0.1016,0.1016,0,0,0.0613,0.0675,0.068,0.071,0.0757,0.0767,0.0819,0.0862,0.0893,0.0958,0.1008,0.1046,0.108,0.1087,0.1095,0.1105,0.1122,0.1109,0.1108,0.1065,0.1117,0.1096,0.1094,0.1133,0.1134,0.1134,0.1077,0,0.0629,0.067,0.0705,0.0742,0.0775,0.0818,0.085,0.0894,0.0941,0.0986,0.1027,0.1078,0.1092,0.1132,0.1141,0.1128,0.113,0.1138,0.1094,0.1092,0.1053,0.1096,0.1137,0.1077,0.1077,0.1077,0.1077,0,0.0638,0.0664,0.0725,0.0776,0.0801,0.0821,0.0887,0.0929,0.0982,0.1034,0.1093,0.1126,0.1167,0.1172,0.1171,0.1185,0.1169,0.1147,0.1144,0.1116,0.1073,0.1027,0.1078,0.1078,0.1078,0.1078,0.1078,0,0.0608,0.0669,0.0719,0.0741,0.0803,0.0849,0.0889,0.095,0.1,0.1083,0.1121,0.1166,0.1204,0.1199,0.1192,0.1196,0.1164,0.1147,0.1098,0.1094,0.1111,0.1107,0.1141,0.1141,0.1141,0.1141,0.1141,0,0.0595,0.0626,0.0709,0.0728,0.0787,0.0852,0.0916,0.0965,0.1033,0.1074,0.116,0.1181,0.1224,0.1218,0.1195,0.1153,0.1167,0.1113,0.109,0.1125,0.1124,0.1109,0.1106,0.1139,0.114,0.114,0.114,0,0.055,0.0607,0.0653,0.0736,0.0776,0.0822,0.093,0.095,0.1046,0.11,0.1144,0.1203,0.1212,0.1214,0.1186,0.1155,0.1111,0.1089,0.1118,0.1095,0.1034,0.1033,0.1023,0.1022,0.1021,0.1021,0.102,0,0.0532,0.0555,0.0651,0.0685,0.0731,0.0814,0.0854,0.0956,0.0986,0.1089,0.1095,0.1153,0.1183,0.1108,0.1123,0.1079,0.1072,0.1049,0.1062,0.1049,0.1027,0.1028,0.1029,0.1019,0.1018,0.1018,0.1018,0,0.0489,0.053,0.0565,0.0638,0.0691,0.0746,0.0824,0.0841,0.0947,0.1028,0.105,0.1075,0.1072,0.1065,0.1061,0.102,0.1069,0.104,0.1042,0.1054,0.1044,0.1023,0.1024,0.1015,0.1016,0.1016,0.1016,0,0.0454,0.0464,0.0519,0.0579,0.0645,0.0677,0.0718,0.0764,0.082,0.0946,0.0932,0.0986,0.1041,0.103,0.1003,0.0999,0.0986,0.0966,0.0971,0.0974,0.0993,0.0975,0.0913,0,0,0,0,0,0.0424,0.0432,0.0461,0.0518,0.0574,0.0618,0.0696,0.0731,0.0831,0.0827,0.0894,0.0897,0.0916,0.0931,0.0914,0.0969,0.0975,0.0948,0.095,0.1,0.1003,0.1034,0,0,0,0,0,0,0.04,0.0428,0.0436,0.0468,0.0491,0.054,0.0584,0.0633,0.0653,0.0757,0.0759,0.086,0.0868,0.0907,0.0896,0.0906,0.0898,0.0992,0.0991,0.0998,0.1001,0.1003,0.1037,0,0,0,0,0]},{"header":{"parameterUnit":"m.s-1","parameterCategory":2,"la1":30.2991,"la2":30.254,"lo1":-89.0895,"lo2":-89.0444,"dy":0.0017,"dx":0.0017,"nx":28,"ny":28,"refTime":"2024-07-16T03:00:00:Z","depth":"4","parameterNumber":3,"parameterNumberName":"V-component_of_CURRENTS"},"data":[0,0,0,0,0,0,0,0,0,0,0,0,0,0,0,0,0,0,0,0,0,0,0,0,0,0,0,0,0,0,0,0,0,0,0,0,0,0,0,0,0,0,0,0,0,0,0,0,0,0,0,0,0,0,0,0,0,0,-0.0113,-0.0113,0,-0.017,-0.017,-0.0171,-0.021,-0.021,-0.021,-0.021,-0.0253,-0.0254,-0.0255,0,0,0,0,0,0,0,0,0,0,0,0,0,-0.0052,-0.0053,-0.0113,-0.0113,-0.0114,-0.0169,-0.017,-0.0172,-0.021,-0.021,-0.021,-0.021,-0.0253,-0.0254,-0.0255,0,0,0,0,0,0,0,0,0,0,0,0,0,-0.0093,-0.0054,-0.0113,-0.0137,-0.014,-0.0169,-0.0171,-0.0172,-0.021,-0.021,-0.021,-0.021,-0.0252,-0.0254,-0.0256,-0.0266,0,0,-0.0261,-0.0262,0,0,0,0,0,0,0,0,-0.0091,-0.0096,-0.0133,-0.0136,-0.0139,-0.018,-0.0165,-0.0202,-0.021,-0.0187,-0.021,-0.021,-0.0225,-0.0229,-0.0245,-0.0268,-0.027,-0.0261,-0.0262,-0.0263,-0.0263,0,0,0,0,0,0,0,-0.0088,-0.0094,-0.0138,-0.0134,-0.0137,-0.015,-0.0156,-0.0172,-0.0207,-0.0189,-0.0191,-0.0192,-0.0227,-0.0243,-0.0246,-0.0271,-0.0261,-0.0262,-0.0264,-0.0264,-0.0361,-0.0363,0,0,0,0,0,0,-0.0074,-0.0091,-0.0137,-0.014,-0.0111,-0.0151,-0.0158,-0.0169,-0.0208,-0.0213,-0.0192,-0.0194,-0.024,-0.0244,-0.0247,-0.0287,-0.0263,-0.0264,-0.0265,-0.036,-0.0361,-0.0363,0,0,0,0,0,0,-0.0073,-0.0078,-0.0134,-0.0114,-0.0121,-0.0152,-0.0164,-0.017,-0.0192,-0.021,-0.0215,-0.0207,-0.024,-0.0245,-0.0279,-0.0287,-0.0265,-0.0267,-0.0358,-0.036,-0.0362,-0.0349,0,0,0,0,0,0,-0.0071,-0.0078,-0.0088,-0.0113,-0.0122,-0.0146,-0.0164,-0.0171,-0.0191,-0.0194,-0.0224,-0.0228,-0.024,-0.0276,-0.028,-0.0289,-0.0268,-0.0356,-0.0359,-0.0362,-0.0347,-0.0351,-0.0353,0,0,0,0,0,-0.0069,-0.0074,-0.0088,-0.0094,-0.0133,-0.0146,-0.0152,-0.0175,-0.0191,-0.0196,-0.0232,-0.0228,-0.0298,-0.0279,-0.0283,-0.0293,-0.0354,-0.0358,-0.0361,-0.0346,-0.035,-0.0353,0,0,0,0,0,0,-0.0059,-0.0079,-0.0095,-0.0109,-0.0125,-0.0151,-0.0163,-0.0178,-0.0212,-0.0225,-0.0243,-0.025,-0.0285,-0.0297,-0.0276,-0.0334,-0.0327,-0.0331,-0.0314,-0.0318,-0.032,-0.0315,-0.027,0,0,0,0,0,-0.006,-0.0066,-0.009,-0.0101,-0.0113,-0.0142,-0.0154,-0.017,-0.0198,-0.0214,-0.0239,-0.0274,-0.0303,-0.0315,-0.0344,-0.0369,-0.0375,-0.0383,-0.0386,-0.0388,-0.039,-0.0416,-0.0421,-0.0374,-0.0374,-0.0374,0,0,-0.006,-0.007,-0.0076,-0.0098,-0.0121,-0.013,-0.015,-0.0171,-0.0184,-0.0213,-0.0251,-0.0284,-0.0315,-0.0349,-0.0366,-0.0358,-0.0403,-0.0392,-0.0393,-0.0395,-0.042,-0.0424,-0.0428,-0.0377,-0.0376,-0.0376,0,0,-0.0054,-0.0076,-0.0081,-0.0092,-0.0116,-0.0129,-0.0133,-0.017,-0.0196,-0.0232,-0.0263,-0.0303,-0.0345,-0.037,-0.0385,-0.0422,-0.042,-0.0437,-0.0439,-0.0464,-0.0468,-0.0471,-0.0468,-0.0471,-0.0434,-0.0434,-0.0434,0,-0.0053,-0.0065,-0.0083,-0.009,-0.01,-0.0125,-0.0136,-0.0158,-0.0202,-0.0227,-0.0244,-0.033,-0.0353,-0.039,-0.0412,-0.0424,-0.0435,-0.0416,-0.0465,-0.0468,-0.0471,-0.0469,-0.0472,-0.0434,-0.0434,-0.0434,-0.0434,0,-0.0054,-0.0063,-0.0067,-0.0081,-0.0093,-0.0105,-0.0133,-0.0158,-0.0194,-0.0221,-0.0282,-0.033,-0.0378,-0.0396,-0.0416,-0.0457,-0.0454,-0.0464,-0.0447,-0.0475,-0.0471,-0.0474,-0.0433,-0.0433,-0.0434,-0.0434,0,0,-0.0046,-0.0064,-0.0064,-0.0071,-0.0093,-0.01,-0.0125,-0.0155,-0.0172,-0.0232,-0.0266,-0.0335,-0.0372,-0.0395,-0.0428,-0.0457,-0.0487,-0.0476,-0.0477,-0.0456,-0.0529,-0.0514,-0.0517,-0.0508,-0.0509,-0.051,-0.051,0,-0.0042,-0.0042,-0.0058,-0.0061,-0.0069,-0.0097,-0.0111,-0.0143,-0.0181,-0.0217,-0.028,-0.0326,-0.0365,-0.0397,-0.0434,-0.0479,-0.05,-0.0485,-0.0521,-0.0521,-0.0491,-0.0522,-0.0513,-0.0513,-0.0514,-0.0514,-0.0515,0,-0.0041,-0.0037,-0.0042,-0.0054,-0.0063,-0.0064,-0.0094,-0.0113,-0.0162,-0.02,-0.0259,-0.0308,-0.0369,-0.0398,-0.0476,-0.0468,-0.0502,-0.053,-0.0531,-0.0526,-0.0515,-0.0486,-0.0521,-0.0521,-0.052,-0.052,-0.0519,0,-0.0022,-0.0028,-0.0028,-0.0032,-0.0047,-0.0059,-0.007,-0.011,-0.0127,-0.019,-0.0211,-0.0293,-0.0332,-0.0399,-0.0474,-0.048,-0.0546,-0.0553,-0.0563,-0.0561,-0.0575,-0.0573,-0.0602,-0.0602,-0.0602,-0.0602,-0.0602,0,-0.0011,-0.001,-0.0015,-0.0013,-0.001,-0.0038,-0.0045,-0.0073,-0.0105,-0.0114,-0.02,-0.0227,-0.0341,-0.0396,-0.0461,-0.0522,-0.0534,-0.0569,-0.0569,-0.0569,-0.0566,-0.0577,-0.0574,-0.0602,-0.0602,-0.0602,-0.0602,0,0.0002,-0.0001,0.0003,-0.0002,-0.0001,-0.0003,-0.0013,-0.0016,-0.0054,-0.0066,-0.0087,-0.0179,-0.0262,-0.0355,-0.0455,-0.0494,-0.0558,-0.0573,-0.0549,-0.0547,-0.0554,-0.0551,-0.0581,-0.0581,-0.0581,-0.0581,-0.058,0,0.0008,0.0013,0.002,0.0031,0.003,0.0031,0.0036,0.0009,0.0014,-0.0032,-0.0029,-0.0122,-0.0189,-0.0301,-0.0418,-0.0527,-0.0546,-0.0562,-0.0585,-0.0559,-0.0557,-0.0554,-0.0551,-0.058,-0.058,-0.058,-0.058,0,0.0021,0.0023,0.0032,0.006,0.0072,0.0083,0.0093,0.0107,0.0083,0.0057,0.0026,-0.0064,-0.0154,-0.0282,-0.0372,-0.0454,-0.0548,-0.0559,-0.0561,-0.0583,-0.0558,-0.0555,-0.0552,-0.0579,-0.0579,-0.0579,-0.0579,0,0.0034,0.0042,0.006,0.0084,0.0106,0.0127,0.0127,0.0139,0.0138,0.0107,0.0097,-0.0025,-0.0101,-0.0244,-0.0327,-0.0412,-0.0436,-0.0448,-0.0455,-0.0458,-0.0436,-0.0387,-0.036,0,0,0,0,0,0.0051,0.0062,0.0084,0.011,0.0135,0.0144,0.0166,0.0165,0.0162,0.016,0.0134,0.005,-0.0102,-0.0186,-0.0266,-0.0338,-0.0462,-0.0434,-0.0481,-0.0574,-0.0575,-0.0572,0,0,0,0,0,0,0.0058,0.008,0.0087,0.0133,0.0153,0.0177,0.0188,0.0183,0.0186,0.017,0.0089,0.0047,-0.0109,-0.0051,-0.0263,-0.0296,-0.0331,-0.0512,-0.0513,-0.0573,-0.0574,-0.0575,-0.0573,0,0,0,0,0]}]]